Keflavik, Iceland

7:11 AM GMT on February 10, 2016 (GMT +0000)
Keflavik

Weather History for BIKF - February, 2013

Change the Weather History Date:

Thursday, February 14, 2013

  Actual Average Record
Temperature  
Mean Temperature 35 °F -  
Max Temperature 38 °F 35 °F 48 °F (2004)
Min Temperature 32 °F 27 °F 24 °F (2015)
Degree Days  
Heating Degree Days 30    
Moisture  
Dew Point 31 °F    
Average Humidity 87    
Maximum Humidity 93    
Minimum Humidity 77    
Precipitation  
Precipitation 0.00 in - - ()
Sea Level Pressure  
Sea Level Pressure 29.56 in    
Wind  
Wind Speed 12 mph ()    
Max Wind Speed 16 mph    
Max Gust Speed -    
Visibility 6.2 miles    
Events      
Averages and records for this station are not official NWS values.
T = Trace of Precipitation, MM = Missing Value Source: Averaged Metar Reports

Daily Weather History Graph

Daily Weather History Graph

Search for Another Location

Airport or City:

Trip Planner

Search our weather history database for the weather conditions in past years. The results will help you decide how hot, cold, wet, or windy it might be!

Date:

Astronomy

Feb. 14, 2013 Rise Set
Actual Time 9:27 AM GMT 6:02 PM GMT
Civil Twilight 8:36 AM GMT 6:53 PM GMT
Nautical Twilight 7:40 AM GMT 7:49 PM GMT
Astronomical Twilight 6:46 AM GMT 8:44 PM GMT
Moon 9:32 AM GMT (2/14) No Moon Set
Length of Visible Light 10h 17m
Length of Day
8h 34m
Waxing Crescent, 19% of the Moon is Illuminated
Feb 14
Waxing Crescent
Feb 17
First Quarter
Feb 25
Full
Mar 4
Last Quarter
Mar 11
New

Hourly Weather History & Observations

Time (GMT) Temp. Windchill Dew Point Humidity Pressure Visibility Wind Dir Wind Speed Gust Speed Precip Events Conditions
12:00 AM 33 °F - 30 °F 83% 29.39 in 37 mi North 13.8 mph - -   Clear
12:00 AM 33.8 °F 24.3 °F 30.2 °F 87% 29.36 in - North 13.8 mph - N/A   Clear
12:30 AM 33.8 °F 24.3 °F 28.4 °F 81% 29.39 in - North 13.8 mph - N/A   Clear
1:00 AM 33.8 °F 23.5 °F 28.4 °F 81% 29.39 in - NNE 16.1 mph - N/A   Clear
1:30 AM 33.8 °F 23.9 °F 28.4 °F 81% 29.39 in - NNE 15.0 mph - N/A   Clear
2:00 AM 33.8 °F 24.8 °F 28.4 °F 81% 29.39 in - North 12.7 mph - N/A   Clear
2:30 AM 33.8 °F 24.3 °F 28.4 °F 81% 29.42 in - North 13.8 mph - N/A   Clear
3:00 AM 33.8 °F 24.8 °F 28.4 °F 81% 29.42 in - North 12.7 mph - N/A   Clear
3:30 AM 33.8 °F 23.9 °F 28.4 °F 81% 29.42 in - North 15.0 mph - N/A   Clear
4:00 AM 33.8 °F 24.3 °F 28.4 °F 81% 29.42 in - North 13.8 mph - N/A   Clear
4:30 AM 32.0 °F 22.5 °F 28.4 °F 87% 29.44 in - North 12.7 mph - N/A   Clear
5:00 AM 32.0 °F 22.5 °F 28.4 °F 87% 29.44 in - North 12.7 mph - N/A   Clear
5:30 AM 33.8 °F 24.3 °F 30.2 °F 87% 29.44 in - North 13.8 mph - N/A   Clear
6:00 AM 33 °F - 31 °F 89% 29.49 in 37 mi North 13.8 mph - -   Scattered Clouds
6:00 AM 33.8 °F 24.3 °F 30.2 °F 87% 29.47 in - North 13.8 mph - N/A   Clear
6:30 AM 33.8 °F 23.5 °F 30.2 °F 87% 29.47 in - North 16.1 mph - N/A   Clear
7:00 AM 33.8 °F 23.9 °F 30.2 °F 87% 29.50 in - North 15.0 mph - N/A   Clear
7:30 AM 35.6 °F 25.9 °F 30.2 °F 81% 29.50 in - North 16.1 mph - N/A   Clear
8:00 AM 35.6 °F 25.9 °F 30.2 °F 81% 29.50 in - North 16.1 mph - N/A   Clear
8:30 AM 33.8 °F - 30.2 °F 87% 29.53 in - North - - N/A   Clear
9:00 AM 33.8 °F 24.3 °F 30.2 °F 87% 29.53 in - North 13.8 mph - N/A   Clear
9:30 AM 33.8 °F 24.3 °F 30.2 °F 87% 29.53 in - North 13.8 mph - N/A   Clear
10:00 AM 33.8 °F 23.9 °F 32.0 °F 93% 29.53 in - NNE 15.0 mph - N/A   Clear
10:30 AM 35.6 °F 26.2 °F 32.0 °F 87% 29.56 in - NNE 15.0 mph - N/A   Clear
11:00 AM 35.6 °F 25.9 °F 32.0 °F 87% 29.56 in - NNE 16.1 mph - N/A   Clear
11:30 AM 37.4 °F 28.9 °F 32.0 °F 81% 29.59 in - North 13.8 mph - N/A   Clear
12:00 PM 37 °F - 32 °F 77% 29.62 in 44 mi North 12.7 mph - -   Partly Cloudy
12:00 PM 37.4 °F 29.8 °F 32.0 °F 81% 29.59 in 6.2 mi North 11.5 mph - N/A   Scattered Clouds
12:30 PM 37.4 °F 29.3 °F 33.8 °F 87% 29.59 in 6.2 mi North 12.7 mph - N/A   Scattered Clouds
1:00 PM 37.4 °F 28.5 °F 33.8 °F 87% 29.59 in 6.2 mi North 15.0 mph - N/A   Scattered Clouds
1:30 PM 37.4 °F 28.5 °F 33.8 °F 87% 29.59 in 6.2 mi NNE 15.0 mph - N/A   Scattered Clouds
2:00 PM 37.4 °F 28.9 °F 33.8 °F 87% 29.62 in 6.2 mi North 13.8 mph - N/A   Scattered Clouds
2:30 PM 37.4 °F 29.3 °F 33.8 °F 87% 29.62 in 6.2 mi North 12.7 mph - N/A   Scattered Clouds
3:00 PM 37.4 °F 30.8 °F 33.8 °F 87% 29.62 in 6.2 mi North 9.2 mph - N/A   Scattered Clouds
3:30 PM 37.4 °F 30.3 °F 33.8 °F 87% 29.62 in 6.2 mi North 10.4 mph - N/A   Scattered Clouds
4:00 PM 37.4 °F 30.8 °F 33.8 °F 87% 29.62 in 6.2 mi North 9.2 mph - N/A   Scattered Clouds
4:30 PM 37.4 °F 30.3 °F 33.8 °F 87% 29.65 in - North 10.4 mph - N/A   Clear
5:00 PM 35.6 °F 29.2 °F 33.8 °F 93% 29.65 in - North 8.1 mph - N/A   Clear
5:30 PM 35.6 °F 28.6 °F 32.0 °F 87% 29.65 in - North 9.2 mph - N/A   Clear
6:00 PM 35 °F - 33 °F 88% 29.69 in 37 mi North 8.1 mph - -   Scattered Clouds
6:00 PM 33.8 °F 27.0 °F 32.0 °F 93% 29.65 in - North 8.1 mph - N/A   Clear
6:30 PM 33.8 °F 27.0 °F 30.2 °F 87% 29.68 in - North 8.1 mph - N/A   Clear
7:00 PM 32.0 °F 24.2 °F 30.2 °F 93% 29.68 in - North 9.2 mph - N/A   Clear
7:30 PM 33.8 °F 26.4 °F 30.2 °F 87% 29.68 in - NNE 9.2 mph - N/A   Clear
8:00 PM 33.8 °F 27.0 °F 30.2 °F 87% 29.68 in - North 8.1 mph - N/A   Clear
8:30 PM 32.0 °F 25.6 °F 30.2 °F 93% 29.71 in - North 6.9 mph - N/A   Clear
9:00 PM 32.0 °F 24.2 °F 30.2 °F 93% 29.71 in 6.2 mi North 9.2 mph - N/A   Partly Cloudy
9:30 PM 33.8 °F 24.3 °F 32.0 °F 93% 29.71 in 6.2 mi North 13.8 mph - N/A   Partly Cloudy
10:00 PM 33.8 °F 23.9 °F 32.0 °F 93% 29.71 in 6.2 mi North 15.0 mph - N/A   Partly Cloudy
10:30 PM 33.8 °F 24.3 °F 32.0 °F 93% 29.71 in 6.2 mi North 13.8 mph - N/A   Partly Cloudy
11:00 PM 33.8 °F 24.3 °F 32.0 °F 93% 29.74 in 6.2 mi North 13.8 mph - N/A   Partly Cloudy
11:30 PM 33.8 °F 24.8 °F 32.0 °F 93% 29.74 in 6.2 mi NNE 12.7 mph - N/A   Partly Cloudy